ARABSAT-6A

Last updated on Tue Sep 22 2026 00:03:15 GMT+0000 (Coordinated Universal Time)

1 44186U 19021A 26264.13876247 .00000150 00000+0 00000+0 0 9998 2 44186 0.0550 341.5273 0005208 269.3379 189.6473 1.00274472 27110
UTC large
Height (km)
Speed (km/s)
/
Latitude / Longitude
Inclination (degrees)
Orbital Period (minutes)
Azimuth
Elevation
Range (km)
Doppler Factor

Next 0 passes for location: London (51.5072 / 0.1276)

No passes found over London.
ARABSAT-6A